contact:dominique.lefevre@mio.osupytheas.fr, maurice.libes@osupytheas.fr, didier.mallarino@osupytheas.fr
Project:EMSO http://www.emso-fr.org/EMSO-France
Depth: 2436.0 m
Title:EMSO Ligure Ouest : Data MII capteur AQUADOPP
Date,Latitude,Longitude,X_East,Y_North,Z_Up,Amplitude_X,Amplitude_Y,Amplitude_Z,Batterie,SoundSpeed,Heading,Pitch,Roll,Pressure,TIS,Speed,Direction
, degrees North, degrees East, m.s-1, m.s-1,m.s-1, 1, 1, 1, Volt, m.s-1, degree, degree, degree, dbar, degree_C, m.s-1, degree
2023-09-29T00:04:03,42.805,6.029,0.019,-0.034,-0.04,104.0,104.0,103.0,13.3,1505.2,349.1,-0.8,1.8,2471.473,13.28,0.038,150.8
2023-09-29T00:07:03,42.805,6.029,0.009,-0.025,-0.019,104.0,104.0,103.0,13.3,1505.2,348.3,-0.8,1.8,2471.466,13.28,0.026,160.2
2023-09-29T00:10:03,42.805,6.029,0.024,-0.048,-0.022,104.0,105.0,102.0,13.4,1505.2,348.6,-0.8,1.8,2471.467,13.28,0.053,153.4
2023-09-29T00:13:03,42.805,6.029,0.02,-0.028,-0.018,105.0,103.0,102.0,13.4,1505.2,329.5,-0.8,1.8,2471.408,13.29,0.034,144.5
2023-09-29T00:16:03,42.805,6.029,0.025,-0.035,-0.03,104.0,103.0,102.0,13.4,1505.2,351.2,-0.8,1.8,2471.413,13.29,0.043,144.5
2023-09-29T00:19:03,42.805,6.029,0.044,-0.036,-0.036,104.0,104.0,102.0,13.4,1505.2,339.2,-0.8,1.8,2471.419,13.29,0.056,129.3
2023-09-29T00:22:03,42.805,6.029,0.018,-0.027,0.006,103.0,104.0,103.0,13.4,1505.2,356.9,-0.7,1.8,2471.427,13.29,0.032,146.3
2023-09-29T00:25:03,42.805,6.029,0.04,-0.018,-0.027,105.0,105.0,103.0,13.3,1505.2,334.9,-0.8,1.8,2471.399,13.29,0.043,114.2
2023-09-29T00:28:03,42.805,6.029,0.014,-0.046,-0.026,105.0,104.0,104.0,13.4,1505.2,335.9,-0.8,1.8,2471.392,13.29,0.048,163.1
2023-09-29T00:31:03,42.805,6.029,0.03,-0.048,-0.003,104.0,103.0,103.0,13.3,1505.2,344.0,-0.8,1.8,2471.42,13.29,0.056,148.0
2023-09-29T00:34:03,42.805,6.029,0.041,-0.01,-0.029,105.0,104.0,102.0,13.4,1505.2,328.0,-0.7,1.8,2471.4,13.29,0.042,103.7
2023-09-29T00:37:03,42.805,6.029,0.036,-0.036,-0.03,103.0,104.0,102.0,13.4,1505.2,338.7,-0.8,1.8,2471.411,13.29,0.05,135.0
2023-09-29T00:40:03,42.805,6.029,0.05,-0.037,-0.017,104.0,104.0,103.0,13.4,1505.2,337.8,-0.7,1.8,2471.376,13.29,0.062,126.5
2023-09-29T00:43:03,42.805,6.029,0.051,-0.036,-0.014,106.0,105.0,102.0,13.3,1505.2,327.9,-0.8,1.8,2471.385,13.29,0.062,125.2
2023-09-29T00:46:03,42.805,6.029,0.016,-0.045,-0.022,104.0,104.0,101.0,13.4,1505.2,334.6,-0.8,1.8,2471.391,13.29,0.047,160.4
2023-09-29T00:49:03,42.805,6.029,0.034,-0.033,-0.023,105.0,104.0,102.0,13.3,1505.2,333.8,-0.8,1.8,2471.406,13.29,0.047,134.1
2023-09-29T00:52:03,42.805,6.029,0.046,-0.036,-0.024,104.0,102.0,102.0,13.3,1505.2,329.4,-0.7,1.8,2471.376,13.29,0.058,128.0
2023-09-29T00:55:03,42.805,6.029,0.017,-0.023,-0.016,104.0,103.0,102.0,13.4,1505.2,336.3,-0.7,1.8,2471.402,13.29,0.028,143.5
2023-09-29T00:58:03,42.805,6.029,0.011,-0.042,-0.036,104.0,103.0,103.0,13.4,1505.2,333.4,-0.8,1.8,2471.39,13.29,0.043,165.3
2023-09-29T01:04:03,42.805,6.029,0.028,-0.026,-0.044,106.0,105.0,104.0,13.3,1505.2,345.2,-0.8,1.8,2471.393,13.28,0.038,132.9
2023-09-29T01:07:03,42.805,6.029,0.014,-0.043,-0.037,104.0,104.0,102.0,13.4,1505.2,349.6,-0.8,1.8,2471.408,13.28,0.045,162.0
2023-09-29T01:10:03,42.805,6.029,0.001,-0.038,-0.052,104.0,104.0,103.0,13.4,1505.2,356.9,-0.8,1.8,2471.41,13.28,0.038,178.5
2023-09-29T01:13:03,42.805,6.029,0.04,-0.031,-0.02,105.0,104.0,103.0,13.4,1505.2,330.3,-0.8,1.8,2471.411,13.29,0.05,127.8
2023-09-29T01:16:03,42.805,6.029,0.024,-0.043,-0.029,104.0,103.0,102.0,13.4,1505.2,346.8,-0.8,1.8,2471.41,13.29,0.049,150.8
2023-09-29T01:19:03,42.805,6.029,0.024,-0.041,-0.015,104.0,105.0,103.0,13.4,1505.2,330.5,-0.8,1.8,2471.371,13.29,0.047,149.7
2023-09-29T01:22:03,42.805,6.029,0.033,-0.026,-0.01,104.0,104.0,102.0,13.3,1505.2,343.6,-0.8,1.8,2471.4,13.29,0.042,128.2
2023-09-29T01:25:03,42.805,6.029,0.016,-0.034,-0.023,104.0,103.0,103.0,13.4,1505.2,329.4,-0.8,1.7,2471.386,13.29,0.037,154.8
2023-09-29T01:28:03,42.805,6.029,0.036,-0.041,-0.038,104.0,105.0,103.0,13.3,1505.2,336.3,-0.8,1.8,2471.393,13.29,0.054,138.7
2023-09-29T01:31:03,42.805,6.029,0.023,-0.027,-0.027,104.0,104.0,104.0,13.3,1505.2,339.9,-0.7,1.8,2471.397,13.29,0.035,139.6
2023-09-29T01:34:03,42.805,6.029,0.023,-0.043,-0.036,104.0,103.0,103.0,13.3,1505.2,340.7,-0.8,1.8,2471.366,13.29,0.048,151.9
2023-09-29T01:37:03,42.805,6.029,0.015,-0.046,-0.039,104.0,103.0,103.0,13.4,1505.2,342.9,-0.8,1.8,2471.396,13.29,0.048,161.9
2023-09-29T01:40:03,42.805,6.029,0.011,-0.035,-0.02,105.0,104.0,103.0,13.4,1505.2,346.5,-0.8,1.8,2471.384,13.29,0.036,162.6
2023-09-29T01:43:03,42.805,6.029,0.026,-0.021,-0.001,104.0,104.0,102.0,13.4,1505.2,357.9,-0.8,1.8,2471.384,13.29,0.033,128.9
2023-09-29T01:46:03,42.805,6.029,0.011,-0.019,-0.013,105.0,105.0,102.0,13.4,1505.2,349.5,-0.8,1.8,2471.355,13.29,0.021,149.9
2023-09-29T01:49:03,42.805,6.029,0.004,-0.042,-0.04,103.0,104.0,103.0,13.4,1505.2,355.7,-0.8,1.8,2471.38,13.29,0.042,174.6
2023-09-29T01:52:03,42.805,6.029,0.029,-0.041,-0.017,103.0,105.0,103.0,13.4,1505.2,327.5,-0.8,1.8,2471.365,13.29,0.05,144.7
2023-09-29T01:55:03,42.805,6.029,0.017,-0.034,-0.038,103.0,104.0,103.0,13.3,1505.2,335.9,-0.7,1.8,2471.42,13.29,0.038,153.4
2023-09-29T01:58:03,42.805,6.029,0.03,-0.034,-0.052,105.0,103.0,102.0,13.3,1505.2,338.0,-0.7,1.9,2471.348,13.29,0.045,138.6
2023-09-29T02:04:03,42.805,6.029,0.014,-0.019,-0.022,104.0,104.0,102.0,13.4,1505.2,333.8,-0.8,1.8,2471.375,13.28,0.023,143.6
2023-09-29T02:07:03,42.805,6.029,0.032,-0.038,-0.038,103.0,103.0,104.0,13.4,1505.2,334.3,-0.8,1.8,2471.405,13.28,0.049,139.9
2023-09-29T02:10:03,42.805,6.029,0.026,-0.04,-0.011,103.0,105.0,103.0,13.4,1505.2,348.9,-0.8,1.8,2471.399,13.28,0.047,147.0
2023-09-29T02:13:03,42.805,6.029,0.001,-0.04,-0.015,104.0,105.0,102.0,13.3,1505.2,358.0,-0.7,1.8,2471.425,13.29,0.04,178.6
2023-09-29T02:16:03,42.805,6.029,0.033,-0.024,-0.006,105.0,103.0,103.0,13.4,1505.2,352.3,-0.8,1.8,2471.397,13.29,0.04,126.0
2023-09-29T02:19:03,42.805,6.029,0.037,-0.044,-0.028,104.0,102.0,103.0,13.4,1505.2,339.6,-0.8,1.8,2471.397,13.29,0.057,139.9
2023-09-29T02:22:03,42.805,6.029,0.024,-0.059,-0.029,104.0,104.0,102.0,13.3,1505.2,340.0,-0.8,1.8,2471.406,13.29,0.063,157.9
2023-09-29T02:25:03,42.805,6.029,0.005,-0.021,-0.037,102.0,105.0,103.0,13.4,1505.2,336.4,-0.8,1.8,2471.394,13.29,0.021,166.6
2023-09-29T02:28:03,42.805,6.029,0.058,-0.029,-0.023,103.0,105.0,102.0,13.4,1505.2,332.2,-0.7,1.8,2471.36,13.29,0.064,116.6
2023-09-29T02:31:03,42.805,6.029,0.02,-0.024,-0.027,105.0,105.0,102.0,13.4,1505.2,349.8,-0.8,1.8,2471.398,13.29,0.031,140.2
2023-09-29T02:34:03,42.805,6.029,0.029,-0.032,-0.025,105.0,103.0,102.0,13.4,1505.2,346.7,-0.8,1.8,2471.379,13.29,0.043,137.8
2023-09-29T02:37:03,42.805,6.029,-0.006,-0.057,-0.033,107.0,104.0,102.0,13.3,1505.2,357.9,-0.8,1.8,2471.412,13.29,0.057,186.0
2023-09-29T02:40:03,42.805,6.029,0.016,-0.034,-0.039,105.0,103.0,103.0,13.3,1505.2,346.5,-0.8,1.8,2471.369,13.29,0.037,154.8
2023-09-29T02:43:03,42.805,6.029,-0.007,-0.04,-0.043,104.0,104.0,102.0,13.3,1505.2,349.8,-0.8,1.8,2471.379,13.29,0.04,189.9
2023-09-29T02:46:03,42.805,6.029,0.025,-0.02,-0.041,103.0,104.0,103.0,13.4,1505.2,335.2,-0.8,1.8,2471.398,13.29,0.032,128.7
2023-09-29T02:49:03,42.805,6.029,0.052,-0.028,-0.038,105.0,103.0,103.0,13.4,1505.2,339.5,-0.8,1.8,2471.384,13.29,0.059,118.3
2023-09-29T02:52:03,42.805,6.029,0.042,-0.029,-0.02,105.0,104.0,102.0,13.4,1505.2,329.9,-0.8,1.8,2471.399,13.29,0.051,124.6
2023-09-29T02:55:03,42.805,6.029,0.019,-0.023,-0.037,104.0,104.0,102.0,13.4,1505.2,330.3,-0.8,1.8,2471.376,13.29,0.029,140.4
2023-09-29T02:58:03,42.805,6.029,0.032,-0.034,-0.044,104.0,103.0,103.0,13.3,1505.2,331.3,-0.8,1.8,2471.423,13.29,0.046,136.7
2023-09-29T03:04:03,42.805,6.029,0.012,-0.021,-0.04,104.0,104.0,102.0,13.4,1505.2,349.5,-0.8,1.8,2471.468,13.28,0.024,150.3
2023-09-29T03:07:03,42.805,6.029,0.017,-0.04,-0.011,104.0,104.0,102.0,13.3,1505.2,353.0,-0.8,1.8,2471.461,13.28,0.043,157.0
2023-09-29T03:10:03,42.805,6.029,0.02,-0.022,-0.022,104.0,103.0,103.0,13.3,1505.2,346.5,-0.8,1.8,2471.453,13.28,0.029,137.7
2023-09-29T03:13:03,42.805,6.029,0.017,-0.04,-0.015,104.0,104.0,102.0,13.4,1505.2,348.6,-0.7,1.8,2471.433,13.29,0.043,157.0
2023-09-29T03:16:03,42.805,6.029,0.051,-0.024,-0.012,106.0,104.0,102.0,13.3,1505.2,329.3,-0.7,1.8,2471.457,13.29,0.056,115.2
2023-09-29T03:19:03,42.805,6.029,0.016,-0.022,-0.012,105.0,103.0,102.0,13.4,1505.2,339.8,-0.8,1.8,2471.421,13.29,0.027,144.0
2023-09-29T03:22:03,42.805,6.029,0.002,-0.024,-0.018,104.0,104.0,102.0,13.4,1505.2,348.6,-0.8,1.8,2471.396,13.29,0.024,175.2
2023-09-29T03:25:03,42.805,6.029,0.014,-0.044,-0.015,105.0,103.0,103.0,13.3,1505.2,357.0,-0.7,1.8,2471.429,13.29,0.046,162.4
2023-09-29T03:28:03,42.805,6.029,0.032,-0.026,-0.007,104.0,104.0,102.0,13.4,1505.2,339.3,-0.8,1.8,2471.425,13.29,0.041,129.1
2023-09-29T03:31:03,42.805,6.029,0.017,0.002,0.0,103.0,103.0,102.0,13.4,1505.2,336.2,-0.8,1.8,2471.426,13.29,0.017,83.3
2023-09-29T03:34:03,42.805,6.029,0.048,0.01,-0.01,103.0,104.0,102.0,13.4,1505.2,333.4,-0.8,1.8,2471.457,13.29,0.049,78.2
2023-09-29T03:37:03,42.805,6.029,-0.004,-0.011,-0.03,104.0,103.0,103.0,13.4,1505.2,336.8,-0.7,1.8,2471.426,13.29,0.011,200.0
2023-09-29T03:40:03,42.805,6.029,0.046,0.001,0.032,104.0,104.0,102.0,13.4,1505.2,347.4,-0.8,1.8,2471.458,13.29,0.046,88.8
2023-09-29T03:43:03,42.805,6.029,0.036,-0.031,0.005,105.0,103.0,102.0,13.3,1505.2,347.8,-0.8,1.8,2471.44,13.29,0.047,130.7
2023-09-29T03:46:03,42.805,6.029,0.022,-0.03,-0.039,104.0,104.0,102.0,13.4,1505.2,357.9,-0.8,1.8,2471.487,13.29,0.037,143.7
2023-09-29T03:49:03,42.805,6.029,0.023,-0.031,-0.046,103.0,104.0,102.0,13.3,1505.2,346.7,-0.8,1.8,2471.459,13.29,0.038,143.4
2023-09-29T03:52:03,42.805,6.029,0.002,-0.023,-0.062,104.0,102.0,102.0,13.4,1505.2,349.4,-0.7,1.8,2471.47,13.29,0.023,175.0
2023-09-29T03:55:03,42.805,6.029,0.04,-0.023,-0.042,105.0,103.0,102.0,13.4,1505.2,335.2,-0.8,1.8,2471.458,13.29,0.046,119.9
2023-09-29T03:58:03,42.805,6.029,0.009,-0.032,-0.056,105.0,103.0,103.0,13.3,1505.2,354.1,-0.8,1.8,2471.474,13.29,0.033,164.3
2023-09-29T04:04:03,42.805,6.029,0.008,-0.011,-0.047,105.0,103.0,102.0,13.3,1505.2,345.9,-0.7,1.8,2471.557,13.28,0.013,144.0
2023-09-29T04:07:03,42.805,6.029,0.039,-0.022,-0.007,104.0,104.0,102.0,13.3,1505.2,353.4,-0.8,1.8,2471.548,13.28,0.044,119.4
2023-09-29T04:10:03,42.805,6.029,0.035,-0.025,-0.052,104.0,104.0,103.0,13.4,1505.2,334.5,-0.8,1.8,2471.513,13.29,0.043,125.5
2023-09-29T04:13:03,42.805,6.029,0.02,-0.014,-0.019,104.0,103.0,103.0,13.3,1505.2,328.4,-0.8,1.8,2471.49,13.29,0.024,125.0
2023-09-29T04:16:03,42.805,6.029,0.035,-0.015,0.0,105.0,104.0,102.0,13.4,1505.2,346.2,-0.8,1.8,2471.53,13.29,0.038,113.2
2023-09-29T04:19:03,42.805,6.029,0.03,-0.014,-0.004,105.0,104.0,102.0,13.3,1505.2,329.3,-0.7,1.8,2471.548,13.29,0.033,115.0
2023-09-29T04:22:03,42.805,6.029,0.028,-0.024,-0.038,104.0,103.0,102.0,13.3,1505.2,333.0,-0.8,1.8,2471.495,13.29,0.036,130.6
2023-09-29T04:25:03,42.805,6.029,0.048,-0.023,-0.011,104.0,102.0,103.0,13.3,1505.2,338.2,-0.8,1.8,2471.482,13.29,0.053,115.6
2023-09-29T04:28:03,42.805,6.029,0.035,-0.014,-0.018,104.0,103.0,102.0,13.3,1505.2,356.8,-0.7,1.8,2471.491,13.29,0.037,111.8
2023-09-29T04:31:03,42.805,6.029,0.029,-0.022,-0.027,104.0,103.0,103.0,13.3,1505.2,335.7,-0.8,1.8,2471.469,13.29,0.036,127.2
2023-09-29T04:34:03,42.805,6.029,0.014,-0.021,-0.026,104.0,103.0,103.0,13.4,1505.2,349.5,-0.8,1.8,2471.497,13.29,0.025,146.3
2023-09-29T04:37:03,42.805,6.029,0.014,-0.019,-0.003,105.0,103.0,103.0,13.4,1505.2,348.4,-0.7,1.8,2471.529,13.29,0.023,143.6
2023-09-29T04:40:03,42.805,6.029,0.037,-0.024,-0.003,105.0,103.0,103.0,13.4,1505.2,341.5,-0.8,1.8,2471.529,13.29,0.044,123.0
2023-09-29T04:43:03,42.805,6.029,0.034,-0.051,-0.021,104.0,103.0,102.0,13.4,1505.2,354.4,-0.7,1.8,2471.515,13.29,0.061,146.3
2023-09-29T04:46:03,42.805,6.029,0.037,-0.024,-0.011,105.0,103.0,102.0,13.4,1505.2,355.8,-0.8,1.8,2471.525,13.29,0.044,123.0
2023-09-29T04:49:03,42.805,6.029,0.034,-0.018,-0.017,105.0,103.0,102.0,13.4,1505.2,331.1,-0.8,1.8,2471.518,13.29,0.038,117.9
2023-09-29T04:52:03,42.805,6.029,0.05,-0.024,-0.023,104.0,103.0,102.0,13.4,1505.2,340.0,-0.8,1.8,2471.55,13.29,0.055,115.6
2023-09-29T04:55:03,42.805,6.029,0.024,-0.027,-0.01,103.0,104.0,102.0,13.3,1505.2,354.8,-0.7,1.8,2471.52,13.29,0.036,138.4
2023-09-29T04:58:03,42.805,6.029,0.001,-0.035,-0.041,104.0,103.0,103.0,13.4,1505.2,356.1,-0.8,1.8,2471.51,13.29,0.035,178.4
2023-09-29T05:04:03,42.805,6.029,0.037,-0.039,-0.019,105.0,103.0,103.0,13.4,1505.2,352.5,-0.8,1.8,2471.591,13.28,0.053,136.5
2023-09-29T05:07:03,42.805,6.029,0.035,0.002,-0.003,105.0,105.0,102.0,13.3,1505.2,329.9,-0.7,1.8,2471.554,13.28,0.035,86.7
2023-09-29T05:10:03,42.805,6.029,0.046,-0.037,-0.051,104.0,103.0,102.0,13.3,1505.2,343.2,-0.8,1.8,2471.538,13.29,0.059,128.8
2023-09-29T05:13:03,42.805,6.029,0.017,-0.036,-0.012,104.0,105.0,102.0,13.4,1505.2,333.0,-0.8,1.8,2471.585,13.29,0.039,154.7
2023-09-29T05:16:03,42.805,6.029,0.043,-0.019,-0.041,104.0,105.0,102.0,13.3,1505.2,337.6,-0.8,1.8,2471.576,13.29,0.047,113.8
2023-09-29T05:19:03,42.805,6.029,0.022,-0.032,-0.029,104.0,103.0,102.0,13.4,1505.2,348.6,-0.8,1.8,2471.583,13.29,0.038,145.5
2023-09-29T05:22:03,42.805,6.029,0.039,-0.023,-0.006,104.0,104.0,102.0,13.4,1505.2,334.8,-0.8,1.8,2471.555,13.29,0.045,120.5
2023-09-29T05:25:03,42.805,6.029,0.025,-0.028,-0.023,104.0,104.0,102.0,13.4,1505.2,342.8,-0.8,1.8,2471.6,13.29,0.037,138.2
2023-09-29T05:28:03,42.805,6.029,0.018,-0.021,-0.002,106.0,103.0,102.0,13.4,1505.2,346.6,-0.7,1.8,2471.546,13.29,0.027,139.4
2023-09-29T05:31:03,42.805,6.029,0.042,-0.012,-0.004,106.0,104.0,102.0,13.3,1505.2,341.2,-0.8,1.8,2471.561,13.29,0.043,105.9
2023-09-29T05:34:03,42.805,6.029,0.041,-0.023,0.006,105.0,104.0,101.0,13.4,1505.2,338.3,-0.7,1.8,2471.559,13.29,0.047,119.3
2023-09-29T05:37:03,42.805,6.029,0.033,-0.029,-0.028,103.0,103.0,103.0,13.3,1505.2,347.1,-0.8,1.8,2471.588,13.29,0.043,131.3
2023-09-29T05:40:03,42.805,6.029,0.024,-0.033,-0.033,104.0,103.0,103.0,13.4,1505.2,344.0,-0.7,1.9,2471.576,13.29,0.04,144.0
2023-09-29T05:43:03,42.805,6.029,0.042,-0.012,-0.015,104.0,104.0,102.0,13.4,1505.2,338.0,-0.7,1.8,2471.573,13.29,0.043,105.9
2023-09-29T05:46:03,42.805,6.029,0.012,-0.03,-0.047,105.0,104.0,102.0,13.4,1505.2,343.0,-0.8,1.8,2471.564,13.29,0.032,158.2
2023-09-29T05:49:03,42.805,6.029,0.048,-0.012,-0.02,103.0,104.0,103.0,13.4,1505.2,339.5,-0.7,1.8,2471.551,13.29,0.049,104.0
2023-09-29T05:52:03,42.805,6.029,0.03,-0.01,-0.03,103.0,103.0,103.0,13.4,1505.2,351.1,-0.8,1.8,2471.569,13.29,0.031,108.4
2023-09-29T05:55:03,42.805,6.029,0.04,-0.045,-0.038,105.0,104.0,102.0,13.3,1505.2,349.3,-0.8,1.8,2471.593,13.29,0.06,138.4
2023-09-29T05:58:03,42.805,6.029,0.041,-0.009,-0.017,105.0,103.0,102.0,13.3,1505.2,338.7,-0.8,1.8,2471.602,13.29,0.041,102.4
2023-09-29T06:04:03,42.805,6.029,0.035,-0.031,0.003,104.0,104.0,102.0,13.4,1505.2,354.4,-0.8,1.8,2471.588,13.28,0.046,131.5
2023-09-29T06:07:03,42.805,6.029,0.055,-0.003,0.02,104.0,104.0,101.0,13.3,1505.2,332.5,-0.8,1.8,2471.585,13.28,0.055,93.1
2023-09-29T06:10:03,42.805,6.029,0.042,-0.036,-0.031,105.0,103.0,102.0,13.4,1505.2,345.0,-0.8,1.8,2471.574,13.29,0.055,130.6
2023-09-29T06:13:03,42.805,6.029,0.021,-0.027,-0.031,104.0,104.0,102.0,13.4,1505.2,344.4,-0.8,1.8,2471.645,13.29,0.034,142.1
2023-09-29T06:16:03,42.805,6.029,0.037,-0.033,-0.022,104.0,103.0,103.0,13.3,1505.2,346.7,-0.8,1.8,2471.602,13.29,0.049,131.7
2023-09-29T06:19:03,42.805,6.029,0.037,-0.015,-0.011,103.0,103.0,103.0,13.4,1505.2,346.6,-0.7,1.8,2471.604,13.29,0.039,112.1
2023-09-29T06:22:03,42.805,6.029,0.02,-0.034,-0.011,104.0,104.0,103.0,13.3,1505.2,352.4,-0.7,1.9,2471.585,13.29,0.039,149.5
2023-09-29T06:25:03,42.805,6.029,0.029,-0.04,-0.007,105.0,104.0,103.0,13.4,1505.2,349.3,-0.8,1.8,2471.571,13.29,0.049,144.1
2023-09-29T06:28:03,42.805,6.029,0.024,-0.051,0.007,104.0,104.0,103.0,13.3,1505.2,356.9,-0.8,1.8,2471.593,13.29,0.056,154.8
2023-09-29T06:31:03,42.805,6.029,0.042,-0.018,-0.004,105.0,104.0,102.0,13.4,1505.2,334.3,-0.8,1.8,2471.623,13.29,0.045,113.2
2023-09-29T06:34:03,42.805,6.029,0.04,-0.038,0.015,104.0,105.0,102.0,13.3,1505.2,348.0,-0.8,1.8,2471.581,13.29,0.055,133.5
2023-09-29T06:37:03,42.805,6.029,0.011,-0.012,-0.006,104.0,103.0,102.0,13.4,1505.2,349.0,-0.7,1.8,2471.571,13.29,0.016,137.5
2023-09-29T06:40:03,42.805,6.029,0.018,-0.028,-0.008,104.0,104.0,102.0,13.4,1505.2,336.9,-0.8,1.8,2471.597,13.29,0.033,147.3
2023-09-29T06:43:03,42.805,6.029,0.051,-0.003,0.002,104.0,103.0,102.0,13.3,1505.2,338.2,-0.7,1.8,2471.607,13.29,0.051,93.4
2023-09-29T06:46:03,42.805,6.029,0.057,-0.038,0.0,104.0,104.0,103.0,13.4,1505.2,346.6,-0.8,1.8,2471.571,13.29,0.068,123.7
2023-09-29T06:49:03,42.805,6.029,0.041,-0.024,-0.023,106.0,105.0,102.0,13.4,1505.2,342.5,-0.7,1.8,2471.598,13.29,0.047,120.3
2023-09-29T06:52:03,42.805,6.029,0.046,-0.048,-0.003,104.0,105.0,103.0,13.4,1505.2,357.0,-0.7,1.8,2471.608,13.29,0.066,136.2
2023-09-29T06:55:03,42.805,6.029,0.027,-0.031,-0.001,105.0,104.0,103.0,13.3,1505.2,333.4,-0.7,1.8,2471.567,13.29,0.041,138.9
2023-09-29T06:58:03,42.805,6.029,0.03,-0.012,-0.03,105.0,104.0,102.0,13.4,1505.2,336.4,-0.7,1.8,2471.604,13.29,0.032,111.8
2023-09-29T07:04:03,42.805,6.029,0.049,-0.048,-0.016,105.0,104.0,102.0,13.3,1505.2,345.9,-0.8,1.8,2471.641,13.28,0.068,134.4
2023-09-29T07:07:03,42.805,6.029,0.023,-0.027,-0.021,104.0,104.0,103.0,13.3,1505.2,335.5,-0.8,1.8,2471.615,13.28,0.035,139.6
2023-09-29T07:10:03,42.805,6.029,0.021,-0.057,-0.039,105.0,104.0,103.0,13.4,1505.2,350.8,-0.8,1.8,2471.61,13.28,0.06,159.8
2023-09-29T07:13:03,42.805,6.029,0.047,-0.035,-0.033,105.0,105.0,103.0,13.4,1505.2,333.4,-0.7,1.8,2471.572,13.29,0.058,126.7
2023-09-29T07:16:03,42.805,6.029,0.044,-0.018,0.003,105.0,105.0,103.0,13.3,1505.2,340.4,-0.8,1.8,2471.615,13.29,0.047,112.2
2023-09-29T07:19:03,42.805,6.029,0.028,-0.021,-0.007,103.0,104.0,102.0,13.3,1505.2,340.1,-0.8,1.8,2471.615,13.29,0.035,126.9
2023-09-29T07:22:03,42.805,6.029,0.033,-0.028,-0.04,104.0,104.0,103.0,13.3,1505.2,346.2,-0.7,1.8,2471.594,13.29,0.043,130.3
2023-09-29T07:25:03,42.805,6.029,0.035,-0.031,-0.009,104.0,104.0,103.0,13.3,1505.2,339.1,-0.7,1.8,2471.601,13.29,0.046,131.5
2023-09-29T07:28:03,42.805,6.029,0.043,-0.021,-0.01,105.0,104.0,102.0,13.4,1505.2,344.8,-0.8,1.8,2471.62,13.29,0.047,116.0
2023-09-29T07:31:03,42.805,6.029,0.038,-0.048,0.01,104.0,103.0,102.0,13.4,1505.2,344.0,-0.8,1.8,2471.579,13.29,0.061,141.6
2023-09-29T07:34:03,42.805,6.029,0.043,-0.011,-0.006,104.0,103.0,102.0,13.3,1505.2,341.2,-0.7,1.8,2471.567,13.29,0.044,104.3
2023-09-29T07:37:03,42.805,6.029,0.031,-0.035,-0.01,105.0,104.0,103.0,13.4,1505.2,347.3,-0.8,1.8,2471.588,13.29,0.046,138.5
2023-09-29T07:40:03,42.805,6.029,0.039,-0.035,-0.004,103.0,104.0,102.0,13.4,1505.2,345.9,-0.8,1.8,2471.615,13.29,0.052,131.9
2023-09-29T07:43:03,42.805,6.029,0.036,-0.054,-0.02,105.0,104.0,103.0,13.3,1505.2,348.2,-0.8,1.8,2471.535,13.29,0.064,146.3
2023-09-29T07:46:03,42.805,6.029,0.053,-0.032,-0.011,104.0,104.0,103.0,13.4,1505.2,337.4,-0.8,1.8,2471.599,13.29,0.061,121.1
2023-09-29T07:49:03,42.805,6.029,0.035,-0.027,-0.023,105.0,104.0,103.0,13.4,1505.2,345.7,-0.8,1.8,2471.593,13.29,0.044,127.7
2023-09-29T07:52:03,42.805,6.029,0.041,-0.026,-0.013,105.0,105.0,103.0,13.3,1505.2,345.0,-0.8,1.8,2471.563,13.29,0.048,122.4
2023-09-29T07:55:03,42.805,6.029,0.061,-0.048,-0.005,105.0,104.0,102.0,13.3,1505.2,347.4,-0.8,1.8,2471.577,13.29,0.077,128.2
2023-09-29T07:58:03,42.805,6.029,0.049,-0.046,0.0,105.0,104.0,103.0,13.4,1505.2,357.9,-0.8,1.8,2471.534,13.29,0.067,133.2
2023-09-29T08:04:03,42.805,6.029,0.028,-0.031,-0.008,104.0,103.0,103.0,13.3,1505.2,345.5,-0.8,1.8,2471.609,13.28,0.041,137.9
2023-09-29T08:07:03,42.805,6.029,0.049,-0.025,0.005,105.0,105.0,103.0,13.4,1505.2,338.2,-0.8,1.8,2471.596,13.28,0.055,117.0
2023-09-29T08:10:03,42.805,6.029,0.03,-0.024,-0.003,105.0,106.0,102.0,13.4,1505.2,354.4,-0.8,1.8,2471.591,13.28,0.038,128.7
2023-09-29T08:13:03,42.805,6.029,0.035,-0.018,-0.019,106.0,104.0,103.0,13.3,1505.2,352.5,-0.8,1.9,2471.6,13.29,0.039,117.2
2023-09-29T08:16:03,42.805,6.029,0.017,-0.032,-0.024,104.0,105.0,102.0,13.3,1505.2,343.6,-0.7,1.8,2471.574,13.29,0.036,152.0
2023-09-29T08:19:03,42.805,6.029,0.03,-0.045,-0.037,105.0,106.0,102.0,13.4,1505.2,348.0,-0.8,1.8,2471.564,13.29,0.054,146.3
2023-09-29T08:22:03,42.805,6.029,0.055,-0.015,0.024,105.0,105.0,103.0,13.4,1505.2,336.3,-0.8,1.8,2471.574,13.29,0.057,105.3
2023-09-29T08:25:03,42.805,6.029,0.034,-0.006,-0.016,104.0,104.0,103.0,13.4,1505.2,334.3,-0.7,1.8,2471.551,13.29,0.034,100.0
2023-09-29T08:28:03,42.805,6.029,0.036,-0.017,0.0,105.0,104.0,103.0,13.4,1505.2,332.2,-0.8,1.9,2471.558,13.29,0.039,115.3
2023-09-29T08:31:03,42.805,6.029,0.038,-0.03,-0.007,104.0,104.0,102.0,13.4,1505.2,344.7,-0.8,1.8,2471.561,13.29,0.048,128.3
2023-09-29T08:34:03,42.805,6.029,0.03,-0.058,0.0,105.0,105.0,102.0,13.3,1505.2,354.8,-0.8,1.8,2471.553,13.29,0.065,152.6
2023-09-29T08:37:03,42.805,6.029,0.039,-0.019,0.001,104.0,104.0,104.0,13.4,1505.2,334.4,-0.7,1.8,2471.568,13.29,0.043,116.0
2023-09-29T08:40:03,42.805,6.029,0.032,-0.024,-0.011,105.0,103.0,103.0,13.4,1505.2,344.4,-0.8,1.8,2471.57,13.29,0.04,126.9
2023-09-29T08:43:03,42.805,6.029,0.038,-0.054,-0.01,105.0,104.0,103.0,13.4,1505.2,355.8,-0.8,1.8,2471.549,13.29,0.066,144.9
2023-09-29T08:46:03,42.805,6.029,0.067,-0.028,-0.011,105.0,104.0,103.0,13.4,1505.2,329.0,-0.8,1.8,2471.541,13.29,0.072,112.7
2023-09-29T08:49:03,42.805,6.029,0.048,-0.034,0.0,105.0,104.0,103.0,13.4,1505.2,332.9,-0.8,1.8,2471.53,13.29,0.058,125.3
2023-09-29T08:52:03,42.805,6.029,0.038,-0.038,0.001,104.0,103.0,102.0,13.4,1505.2,348.6,-0.7,1.8,2471.574,13.29,0.053,135.0
2023-09-29T08:55:03,42.805,6.029,0.048,-0.031,0.009,104.0,104.0,103.0,13.4,1505.2,349.7,-0.8,1.8,2471.554,13.29,0.057,122.9
2023-09-29T08:58:03,42.805,6.029,0.021,-0.024,-0.012,104.0,104.0,103.0,13.4,1505.2,342.5,-0.8,1.8,2471.545,13.29,0.031,138.8
2023-09-29T09:04:03,42.805,6.029,0.049,-0.02,-0.008,104.0,105.0,103.0,13.4,1505.2,340.4,-0.8,1.8,2471.646,13.28,0.052,112.2
2023-09-29T09:07:03,42.805,6.029,0.042,-0.031,-0.006,105.0,103.0,103.0,13.4,1505.2,336.8,-0.8,1.8,2471.551,13.28,0.052,126.4
2023-09-29T09:10:03,42.805,6.029,0.043,-0.031,0.024,105.0,103.0,102.0,13.4,1505.2,354.7,-0.8,1.8,2471.595,13.28,0.053,125.8
2023-09-29T09:13:03,42.805,6.029,0.044,-0.04,-0.006,105.0,104.0,102.0,13.4,1505.2,348.0,-0.7,1.8,2471.579,13.29,0.059,132.3
2023-09-29T09:16:03,42.805,6.029,0.062,-0.041,0.018,104.0,104.0,103.0,13.4,1505.2,343.6,-0.8,1.8,2471.583,13.29,0.074,123.5
2023-09-29T09:19:03,42.805,6.029,0.063,-0.037,-0.001,105.0,104.0,102.0,13.4,1505.2,330.2,-0.8,1.8,2471.505,13.29,0.073,120.4
2023-09-29T09:22:03,42.805,6.029,0.071,-0.025,0.006,105.0,104.0,103.0,13.4,1505.2,336.0,-0.8,1.8,2471.543,13.29,0.075,109.4
2023-09-29T09:25:03,42.805,6.029,0.023,-0.047,-0.001,104.0,104.0,102.0,13.4,1505.2,355.6,-0.7,1.8,2471.563,13.29,0.052,153.9
2023-09-29T09:28:03,42.805,6.029,0.074,-0.06,0.008,105.0,104.0,103.0,13.4,1505.2,340.1,-0.7,1.8,2471.554,13.29,0.095,129.0
2023-09-29T09:31:03,42.805,6.029,0.043,-0.022,-0.024,104.0,104.0,103.0,13.4,1505.2,339.1,-0.8,1.8,2471.544,13.29,0.048,117.1
2023-09-29T09:34:03,42.805,6.029,0.05,-0.012,0.018,104.0,104.0,103.0,13.4,1505.2,328.7,-0.7,1.8,2471.541,13.29,0.051,103.5
2023-09-29T09:37:03,42.805,6.029,0.037,-0.03,-0.022,104.0,102.0,103.0,13.4,1505.2,327.0,-0.8,1.8,2471.49,13.29,0.047,129.0
2023-09-29T09:40:03,42.805,6.029,0.044,-0.031,-0.008,103.0,103.0,102.0,13.3,1505.2,340.6,-0.7,1.8,2471.533,13.29,0.053,125.2
2023-09-29T09:43:03,42.805,6.029,0.055,-0.035,0.002,105.0,105.0,102.0,13.4,1505.2,333.4,-0.8,1.8,2471.539,13.29,0.065,122.5
2023-09-29T09:46:03,42.805,6.029,0.05,-0.024,0.013,104.0,103.0,103.0,13.4,1505.2,336.2,-0.8,1.8,2471.504,13.29,0.055,115.6
2023-09-29T09:49:03,42.805,6.029,0.039,-0.037,0.0,103.0,105.0,103.0,13.4,1505.2,356.8,-0.8,1.8,2471.528,13.29,0.053,133.5
2023-09-29T09:52:03,42.805,6.029,0.057,-0.048,-0.035,104.0,105.0,103.0,13.3,1505.2,326.5,-0.8,1.8,2471.527,13.29,0.074,130.1
2023-09-29T09:55:03,42.805,6.029,0.031,-0.035,-0.018,103.0,105.0,102.0,13.4,1505.2,346.9,-0.7,1.8,2471.55,13.29,0.046,138.5